Tracking 21606 objects as of 24-Oct-2020
HD Live streaming from Space Station
objects crossing your sky now

COSMOS 418

Track COSMOS 418 now!
10-day predictions
COSMOS 418 is classified as:


NORAD ID: 5217
Int'l Code: 1971-041H
Perigee: 1,406.4 km
Apogee: 1,499.0 km
Inclination: 74.0 °
Period: 114.8 minutes
Semi major axis: 7823 km
RCS: 0.6974 m2 (medium)
Launch date: May 7, 1971
Source: Commonwealth of Independent States (former USSR) (CIS)
Launch site: PLESETSK MISSILE AND SPACE COMPLEX (PKMTR)
aabbcc
Your satellite tracking list
Your tracking list is empty




NASA's NSSDC Master Catalog

Two Line Element Set (TLE):
1  5217U 71041H   20298.28717470 -.00000020 +00000-0 -27845-4 0  9999
2  5217 074.0159 337.8042 0059209 121.4885 310.7056 12.54538752265359
Source of the keplerian elements: AFSPC